Regional Weather Roundup
Issued by NWS

Home | Current Version | Previous Version | Graphics & Text | Print | Product List | Glossary On
Versions: 1 2 3 4 5 6 7 8 9 10 11 12 13 14 15 16 17 18 19 20 21 22 23 24 25 26 27 28 29 30 31 32 33 34 35 36 37 38 39 40 41 42 43 44 45 46 47 48 49 50
000
ASUS43 KBIS 250502
RWRND

NORTH DAKOTA REGIONAL WEATHER ROUNDUP
NATIONAL WEATHER SERVICE BISMARCK ND
1100 PM CST FRI FEB 24 2017

NOTE: "FAIR" INDICATES FEW OR NO CLOUDS BELOW 12,000 FEET WITH NO
SIGNIFICANT WEATHER AND/OR OBSTRUCTIONS TO VISIBILITY.


NDZ001>003-009>011-017-250600-
NORTHWEST NORTH DAKOTA

CITY           SKY/WX    TMP DP  RH WIND       PRES   REMARKS
WILLISTON      CLOUDY    22  17  81 SW3       30.03F
MINOT          FAIR      22  16  78 S6        30.03F WCI  14
$$

NDZ018>021-031>035-040>046-250600-
SOUTHWEST NORTH DAKOTA

CITY           SKY/WX    TMP DP  RH WIND       PRES   REMARKS
BISMARCK       FAIR      18  15  88 CALM      30.09F
DICKINSON      CLOUDY    19  15  84 S5        30.01F WCI  12
GARRISON         N/A     16  12  84 CALM      30.04F
HETTINGER ARPT CLOUDY    22  15  75 SE5       30.04F WCI  16
$$

NDZ004>008-012>016-024-026-027-054-250600-
NORTHEAST NORTH DAKOTA

CITY           SKY/WX    TMP DP  RH WIND       PRES   REMARKS
GRAND FORKS    CLEAR     16   8  71 CALM      30.10F
GRND FRKS AFB  CLEAR     15  12  88 NW5       30.09F WCI   7
DEVILS LAKE    FAIR      16  13  88 SW6       30.06F WCI   7
$$

NDZ022-023-025-028>030-036>039-047>053-250600-
SOUTHEAST NORTH DAKOTA

CITY           SKY/WX    TMP DP  RH WIND       PRES   REMARKS
FARGO          CLEAR     18  11  74 N12       30.09F WCI   5
JAMESTOWN      FAIR      16  13  88 CALM      30.07F
$$





USA.gov is the U.S. government's official web portal to all federal, state and local government web resources and services.